CW1943 Weather Reports


time (UTC)temp
F
wind
direction
speed
knots
gust
knots
rain 1hr
in
rain 24hr
in
rain mn
in
humidity
%
barometer
mb
20260503224548 79 360 3.5 11.3 0.00 0.00 0.00 40 1010.7
20260503223051 78 16 4.3 11.3 0.00 0.00 0.00 41 1010.9
20260503221553 79 360 3.5 11.3 0.00 0.00 0.00 41 1010.9
20260503220050 80 13 4.3 10.4 0.00 0.00 0.00 37 1011.0
20260503214545 80 322 4.3 10.4 0.00 0.00 0.00 37 1011.2
20260503213049 80 20 3.5 8.7 0.00 0.00 0.00 37 1011.4
20260503211551 80 80 3.5 9.6 0.00 0.00 0.00 39 1011.5
20260503210052 79 10 1.7 7.8 0.00 0.00 0.00 41 1011.7
20260503204547 80 308 1.7 7.0 0.00 0.00 0.00 41 1011.9
20260503203050 79 350 1.7 8.7 0.00 0.00 0.00 41 1012.0
20260503201548 79 352 2.6 7.0 0.00 0.00 0.00 42 1012.2
20260503200051 78 265 2.6 9.6 0.00 0.00 0.00 41 1012.4
20260503194547 78 325 1.7 7.8 0.00 0.00 0.00 41 1012.7
20260503193052 77 294 3.5 8.7 0.00 0.00 0.00 42 1012.9
20260503191606 76 5 3.5 9.6 0.00 0.00 0.00 42 1013.0
20260503190053 76 26 3.5 7.8 0.00 0.00 0.00 44 1013.1
20260503184554 75 38 3.5 9.6 0.00 0.00 0.00 45 1013.3
20260503183109 75 280 1.7 7.8 0.00 0.00 0.00 46 1013.4
20260503181617 75 14 3.5 7.0 0.00 0.00 0.00 45 1013.5
20260503180054 75 13 1.7 7.0 0.00 0.00 0.00 46 1013.5
20260503174548 73 61 1.7 7.8 0.00 0.00 0.00 48 1013.6
20260503173056 72 51 3.5 7.8 0.00 0.00 0.00 50 1013.7
20260503171545 71 22 4.3 9.6 0.00 0.00 0.00 52 1013.7
20260503100104 55 5 0.9 1.7 0.00 0.00 0.00 70 1014.3
20260503081549 58 9 0.9 1.7 0.00 0.00 0.00 62 1014.5
20260503071556 59 0 0.0 0.0 0.00 0.00 0.00 61 1014.2
20260503070106 60 0 0.0 0.0 0.00 0.00 0.00 60 1014.2
20260503060112 61 11 0.9 2.6 0.00 0.00 0.00 58 1014.2
20260503054549 62 15 0.0 1.7 0.00 0.00 0.00 58 1014.2
20260503053046 62 24 0.9 2.6 0.00 0.00 0.00 58 1014.2
20260503051552 62 11 1.7 3.5 0.00 0.00 0.00 57 1014.2
20260503050052 62 11 0.9 2.6 0.00 0.00 0.00 58 1014.2
20260503044547 62 0 0.0 1.7 0.00 0.00 0.00 58 1014.1
20260503043047 63 350 0.9 2.6 0.00 0.00 0.00 57 1014.0
20260503041546 64 360 0.9 4.3 0.00 0.00 0.00 56 1013.8
20260503040049 64 0 0.0 2.6 0.00 0.00 0.00 56 1013.6
20260503034556 65 339 0.9 2.6 0.00 0.00 0.00 56 1013.4
20260503033055 65 347 0.9 3.5 0.00 0.00 0.00 56 1013.1
20260503031547 66 350 0.9 2.6 0.00 0.00 0.00 55 1013.0
20260503030056 67 329 1.7 7.0 0.00 0.00 0.00 54 1012.8
20260503024547 68 5 0.9 7.0 0.00 0.00 0.00 52 1012.7
20260503023045 69 341 3.5 7.8 0.00 0.00 0.00 51 1012.6
20260503021549 69 352 1.7 7.8 0.00 0.00 0.00 51 1012.7
20260503020045 70 38 2.6 9.6 0.00 0.00 0.00 52 1012.6
20260503014546 70 19 3.5 10.4 0.00 0.00 0.00 52 1012.7
20260503013054 71 332 4.3 8.7 0.00 0.00 0.00 52 1012.9
20260503011556 71 15 4.3 9.6 0.00 0.00 0.00 52 1012.8
20260503010114 72 16 3.5 9.6 0.00 0.00 0.00 53 1012.8
20260503004607 72 333 2.6 8.7 0.00 0.00 0.00 52 1013.0
20260503003045 72 334 4.3 8.7 0.00 0.00 0.00 52 1013.1
20260503001547 73 329 3.5 8.7 0.00 0.00 0.00 50 1013.1
20260503000050 73 348 3.5 11.3 0.00 0.00 0.00 48 1013.1
20260502234547 73 352 4.3 10.4 0.00 0.00 0.00 48 1013.3
20260502233045 73 298 5.2 11.3 0.00 0.00 0.00 50 1013.5
20260502231548 74 333 2.6 10.4 0.00 0.00 0.00 50 1013.8
20260502230051 74 340 5.2 13.9 0.00 0.00 0.00 49 1013.9